WetterOnline ( http://www.wetteronline.de )

Wetter aktuell Gladbeck

Aktuelles Wetter: Essen (161m)

6-stündlich | Neueste Meldungen
Ortszeit Temperatur Wetter
So, 19.08. 14:00 22.4° C wolkenlos
So, 19.08. 8:00 15.3° C wolkig
So, 19.08. 2:00 15.6° C wolkig
Sa, 18.08. 20:00 21.5° C wolkig
Sa, 18.08. 14:00 22.0° C fast wolkenlos
Sa, 18.08. 8:00 13.5° C leicht bewölkt
Sa, 18.08. 2:00 15.2° C leicht bewölkt
Fr, 17.08. 20:00 21.1° C bewölkt
Ortszeit Temperatur Wetter
So, 19.08. 19:00 24.2° C wolkig
So, 19.08. 18:50 24.2° C bedeckt
So, 19.08. 18:40 24.2° C leicht bewölkt
So, 19.08. 18:30 24.4° C fast wolkenlos
So, 19.08. 18:20 24.4° C fast wolkenlos
So, 19.08. 18:10 24.4° C leicht bewölkt
So, 19.08. 18:00 24.7° C bedeckt
So, 19.08. 17:30 24.5° C bedeckt
So, 19.08. 17:00 24.5° C wolkenlos
So, 19.08. 16:30 23.7° C wolkenlos
So, 19.08. 16:00 23.9° C wolkenlos
Ortszeit Relative Feuchte Sichtweite
So, 19.08. 14:00 53% 55 km
So, 19.08. 8:00 86% 21 km
So, 19.08. 2:00 84% 30 km
Sa, 18.08. 20:00 57% 50 km
Sa, 18.08. 14:00 48% 35 km
Sa, 18.08. 8:00 88% 19 km
Sa, 18.08. 2:00 80% 35 km
Fr, 17.08. 20:00 47% 50 km
Ortszeit Relative Feuchte Sichtweite
So, 19.08. 19:00 53% 40 km
So, 19.08. 18:50 53% -
So, 19.08. 18:40 53% -
So, 19.08. 18:30 52% 40 km
So, 19.08. 18:20 52% -
So, 19.08. 18:10 51% -
So, 19.08. 18:00 50% 35 km
So, 19.08. 17:30 49% 45 km
So, 19.08. 17:00 48% 40 km
So, 19.08. 16:30 49% 40 km
So, 19.08. 16:00 50% 35 km
Ortszeit Niederschlagsmenge Niederschlagsart
So, 19.08. 14:00 0.0 l/m2 in 6 Std. -
So, 19.08. 8:00 0.0 l/m2 in 12 Std. -
So, 19.08. 2:00 0.0 l/m2 in 6 Std. -
Sa, 18.08. 20:00 0.0 l/m2 in 12 Std. -
Sa, 18.08. 14:00 0.0 l/m2 in 6 Std. -
Sa, 18.08. 8:00 0.0 l/m2 in 12 Std. -
Sa, 18.08. 2:00 0.0 l/m2 in 6 Std. -
Fr, 17.08. 20:00 4 l/m2 in 12 Std. -
Ortszeit Niederschlagsmenge Niederschlagsart
So, 19.08. 19:00 0.0 l/m2 in 1 Std. -
So, 19.08. 18:50 keine Meldung -
So, 19.08. 18:40 keine Meldung -
So, 19.08. 18:30 0.0 l/m2 in 1 Std. -
So, 19.08. 18:20 keine Meldung -
So, 19.08. 18:10 keine Meldung -
So, 19.08. 18:00 0.0 l/m2 in 1 Std. -
So, 19.08. 17:30 0.0 l/m2 in 1 Std. -
So, 19.08. 17:00 0.0 l/m2 in 1 Std. -
So, 19.08. 16:30 0.0 l/m2 in 1 Std. -
So, 19.08. 16:00 0.0 l/m2 in 1 Std. -
Ortszeit Stärke Spitze Richtung
km/h Bft. km/h Grad Sektor
So, 19.08. 14:00 15 3 33 250° W
So, 19.08. 8:00 9 2 13 200° S
So, 19.08. 2:00 4 1 14 180° S
Sa, 18.08. 20:00 9 2 31 310° NW
Sa, 18.08. 14:00 14 3 29 220° SW
Sa, 18.08. 8:00 7 2 11 190° S
Sa, 18.08. 2:00 7 2 11 290° W
Fr, 17.08. 20:00 7 2 22 10° N
Ortszeit Stärke Spitze Richtung
km/h Bft. km/h Grad Sektor
So, 19.08. 19:00 14 3 25 240° SW
So, 19.08. 18:50 14 3 - 240° SW
So, 19.08. 18:40 14 3 - 240° SW
So, 19.08. 18:30 13 3 26 230° SW
So, 19.08. 18:20 13 3 - 230° SW
So, 19.08. 18:10 13 3 - 230° SW
So, 19.08. 18:00 13 3 30 230° SW
So, 19.08. 17:30 13 3 30 240° SW
So, 19.08. 17:00 14 3 36 240° SW
So, 19.08. 16:30 18 3 32 240° SW
So, 19.08. 16:00 14 3 32 240° SW
Ortszeit Untergrenze Bedeckung Gattung
total tief tief mittel hoch
So, 19.08. 14:00 2100 m 0/8 0/8 - - -
So, 19.08. 8:00 10500 m 7/8 0/8 - - -
So, 19.08. 2:00 10500 m 8/8 0/8 - - -
Sa, 18.08. 20:00 9000 m 7/8 0/8 - - -
Sa, 18.08. 14:00 1350 m 1/8 1/8 - - -
Sa, 18.08. 8:00 1500 m 5/8 2/8 - - -
Sa, 18.08. 2:00 10500 m 6/8 0/8 - - -
Fr, 17.08. 20:00 1500 m 7/8 7/8 - - -
Ortszeit Bedeckungsgrad in Achtel und Wolkenuntergrenze
So, 19.08. 19:00 8
So, 19.08. 18:50 9 9 9
So, 19.08. 18:40 1(1110m) 2(2400m)
So, 19.08. 18:30 1(2400m)
So, 19.08. 18:20 1(2400m)
So, 19.08. 18:10 1(1080m) 2(2400m)
So, 19.08. 18:00 9 9 9
So, 19.08. 17:30 9 9 9
So, 19.08. 17:00 keine Wolken
So, 19.08. 16:30 keine Wolken
So, 19.08. 16:00 keine Wolken
Ortszeit Luftdruck NN (hPa) Tendenz (hPa in 3 Std.)
So, 19.08. 14:00 1020 - 1,3
So, 19.08. 8:00 1022 0,0
So, 19.08. 2:00 1023 + 0,5
Sa, 18.08. 20:00 1022 + 0,1
Sa, 18.08. 14:00 1022 - 0,4
Sa, 18.08. 8:00 1023 + 0,7
Sa, 18.08. 2:00 1022 + 0,8
Fr, 17.08. 20:00 1019 + 0,2
Ortszeit Luftdruck NN (hPa) Tendenz (hPa in 3 Std.)
So, 19.08. 19:00 1018 - 1,1
So, 19.08. 18:50 1018 keine Meldung
So, 19.08. 18:40 1018 keine Meldung
So, 19.08. 18:30 1018 - 1,4
So, 19.08. 18:20 1018 keine Meldung
So, 19.08. 18:10 1018 keine Meldung
So, 19.08. 18:00 1018 - 1,4
So, 19.08. 17:30 1019 - 1,6
So, 19.08. 17:00 1019 - 1,5
So, 19.08. 16:30 1019 - 1,6
So, 19.08. 16:00 1019 - 1,6
Ortszeit Schneehöhe (cm)
So, 19.08. 14:00 -
So, 19.08. 8:00 -
So, 19.08. 2:00 -
Sa, 18.08. 20:00 -
Sa, 18.08. 14:00 -
Sa, 18.08. 8:00 -
Sa, 18.08. 2:00 -
Fr, 17.08. 20:00 -
Ortszeit Schneehöhe (cm)
So, 19.08. 19:00 -
So, 19.08. 18:50 -
So, 19.08. 18:40 -
So, 19.08. 18:30 -
So, 19.08. 18:20 -
So, 19.08. 18:10 -
So, 19.08. 18:00 -
So, 19.08. 17:30 -
So, 19.08. 17:00 -
So, 19.08. 16:30 -
So, 19.08. 16:00 -
Link zu dieser Seite / Seite empfehlen

Das Wetter in ...